sat.trackr.live / text

‹ back to catalog

CAS500-2 RIDESHARE OBJE*

NORAD 68998 · 2026-100U

PAYLOAD ACTIVE UNKNOWN

§ Identity

Operator
Country
TBD
Launch date
2026-05-03
Launch site
AFWTR
Launch vehicle
Mass (kg)
RCS (m²)

External: N2YO · Heavens-Above · Gunter

§ Orbital elements

Epoch: 2026-05-24T23:53:56.395104Z

Period
96.52 min
Inclination
97.7418°
Eccentricity
0.0002729
Mean motion
14.91918449 rev/d
Perigee alt
590.1 km
Apogee alt
593.9 km
Semi-major
6,970.1 km
B*
1.2517e-4
RAAN
42.8957°
Arg perigee
127.5800°
Mean anomaly
232.5667°
Rev number
324

§ Raw data

CAS500-2 RIDESHARE OBJE*1 68998U 26100U   26144.99579161  .00001211  00000+0  12517-3 0  99962 68998  97.7418  42.8957 0002729 127.5800 232.5667 14.91918449  3246

JSON: /api/v1/satellites/68998 · /tle

For live sub-satellite position, see the globe view (requires WebGL).

§ Visibility from observer

Set your observer location to see the next 7 days of passes ≥ 10°. The values pass through the URL so the page stays shareable.

No JS? Fill the form by hand. The geolocation button needs JavaScript.